| time (UTC) | temp C | wind direction | speed KPH | gust KPH | rain 1hr cm | rain 24hr cm | rain mn cm | humidity % | barometer mb |
| 20260505004547 | 15 | 300 | 8.0 | 12.9 | 0.00 | 0.00 | 0.00 | 38 | 1006.6 |
| 20260505003050 | 15 | 307 | 6.4 | 17.7 | 0.00 | 0.00 | 0.00 | 38 | 1006.8 |
| 20260505001546 | 15 | 212 | 6.4 | 9.7 | 0.00 | 0.00 | 0.00 | 38 | 1006.8 |
| 20260505000052 | 14 | 192 | 0.0 | 14.5 | 0.00 | 0.00 | 0.00 | 41 | 1006.8 |
| 20260504234552 | 12 | 248 | 3.2 | 22.5 | 0.00 | 0.00 | 0.00 | 44 | 1007.0 |
| 20260504233054 | 12 | 268 | 12.9 | 33.8 | 0.00 | 0.00 | 0.00 | 46 | 1007.4 |
| 20260504231552 | 14 | 236 | 11.3 | 27.4 | 0.00 | 0.00 | 0.00 | 36 | 1007.2 |
| 20260504230114 | 14 | 258 | 9.7 | 25.7 | 0.00 | 0.00 | 0.00 | 35 | 1006.8 |
| 20260504224606 | 15 | 291 | 17.7 | 30.6 | 0.00 | 0.00 | 0.00 | 35 | 1006.6 |
| 20260504223051 | 15 | 288 | 19.3 | 45.1 | 0.00 | 0.00 | 0.00 | 34 | 1006.6 |
| 20260504221550 | 16 | 269 | 16.1 | 35.4 | 0.00 | 0.00 | 0.00 | 31 | 1006.4 |
| 20260504220057 | 16 | 278 | 16.1 | 27.4 | 0.00 | 0.00 | 0.00 | 31 | 1006.6 |
| 20260504214550 | 16 | 227 | 14.5 | 32.2 | 0.00 | 0.00 | 0.00 | 29 | 1006.9 |
| 20260504213051 | 16 | 243 | 14.5 | 25.7 | 0.00 | 0.00 | 0.00 | 31 | 1007.0 |
| 20260504211557 | 15 | 283 | 8.0 | 19.3 | 0.00 | 0.00 | 0.00 | 34 | 1007.2 |
| 20260504210100 | 15 | 271 | 17.7 | 49.9 | 0.00 | 0.00 | 0.00 | 27 | 1007.5 |
| 20260504204550 | 16 | 338 | 11.3 | 29.0 | 0.00 | 0.00 | 0.00 | 33 | 1007.3 |
| 20260504203056 | 13 | 290 | 8.0 | 43.5 | 0.00 | 0.00 | 0.00 | 37 | 1007.7 |
| 20260504201559 | 15 | 290 | 11.3 | 20.9 | 0.00 | 0.00 | 0.00 | 37 | 1007.9 |
| 20260504194551 | 16 | 88 | 9.7 | 20.9 | 0.00 | 0.00 | 0.00 | 33 | 1007.8 |
| 20260504193050 | 16 | 264 | 11.3 | 29.0 | 0.00 | 0.00 | 0.00 | 34 | 1008.0 |
| 20260504191605 | 15 | 243 | 3.2 | 25.7 | 0.00 | 0.00 | 0.00 | 36 | 1008.1 |
| 20260504190049 | 15 | 269 | 11.3 | 20.9 | 0.00 | 0.00 | 0.00 | 35 | 1008.3 |
| 20260504184549 | 14 | 279 | 12.9 | 25.7 | 0.00 | 0.00 | 0.00 | 38 | 1008.6 |
| 20260504183050 | 15 | 283 | 16.1 | 24.1 | 0.00 | 0.00 | 0.00 | 37 | 1008.8 |
| 20260504181546 | 15 | 285 | 8.0 | 16.1 | 0.00 | 0.00 | 0.00 | 38 | 1008.8 |
| 20260504180051 | 15 | 237 | 1.6 | 16.1 | 0.00 | 0.00 | 0.00 | 37 | 1008.7 |
| 20260504174554 | 14 | 203 | 6.4 | 16.1 | 0.00 | 0.00 | 0.00 | 37 | 1009.0 |
| 20260504173052 | 13 | 315 | 6.4 | 11.3 | 0.00 | 0.00 | 0.00 | 36 | 1009.1 |
| 20260504171549 | 13 | 248 | 6.4 | 8.0 | 0.00 | 0.00 | 0.00 | 38 | 1009.2 |
| 20260504120119 | -2 | 114 | 0.0 | 1.6 | 0.00 | 0.00 | 0.00 | 88 | 1010.4 |
| 20260504081548 | 0 | 297 | 0.0 | 1.6 | 0.00 | 0.00 | 0.00 | 79 | 1010.7 |
| 20260504044554 | 5 | 0 | 0.0 | 1.6 | 0.00 | 0.00 | 0.00 | 62 | 1011.3 |
| 20260504043115 | 5 | 285 | 1.6 | 3.2 | 0.00 | 0.00 | 0.00 | 61 | 1011.5 |
| 20260504041551 | 6 | 0 | 0.0 | 3.2 | 0.00 | 0.00 | 0.00 | 58 | 1011.3 |
| 20260504040054 | 7 | 133 | 4.8 | 11.3 | 0.00 | 0.00 | 0.00 | 57 | 1011.3 |
| 20260504034551 | 6 | 0 | 0.0 | 1.6 | 0.00 | 0.00 | 0.00 | 57 | 1011.2 |
| 20260504033107 | 6 | 0 | 0.0 | 1.6 | 0.00 | 0.00 | 0.00 | 56 | 1011.0 |
| 20260504031556 | 7 | 0 | 0.0 | 4.8 | 0.00 | 0.00 | 0.00 | 53 | 1010.8 |
| 20260504024550 | 8 | 0 | 0.0 | 1.6 | 0.00 | 0.00 | 0.00 | 46 | 1010.7 |
| 20260504023057 | 10 | 0 | 0.0 | 0.0 | 0.00 | 0.00 | 0.00 | 40 | 1010.6 |
| 20260504021550 | 12 | 290 | 0.0 | 0.0 | 0.00 | 0.00 | 0.00 | 36 | 1010.5 |
| 20260504020058 | 15 | 0 | 0.0 | 6.4 | 0.00 | 0.00 | 0.00 | 31 | 1010.5 |
| 20260504014554 | 16 | 291 | 0.0 | 14.5 | 0.00 | 0.00 | 0.00 | 28 | 1010.5 |
| 20260504013051 | 16 | 263 | 4.8 | 9.7 | 0.00 | 0.00 | 0.00 | 25 | 1010.6 |
| 20260504011549 | 17 | 25 | 4.8 | 14.5 | 0.00 | 0.00 | 0.00 | 24 | 1010.6 |
| 20260504010059 | 17 | 228 | 1.6 | 14.5 | 0.00 | 0.00 | 0.00 | 24 | 1010.8 |